FW0974 Weather Reports


Display with metric or nautical units.
time (UTC)temp
F
wind
direction
speed
MPH
gust
MPH
rain 1hr
in
rain 24hr
in
rain mn
in
humidity
%
barometer
mb
20260510181528 94 303 7.0 15.0 0.00 0.00 0.00 50 1013.1
20260510180026 93 236 4.0 11.0 0.00 0.00 0.00 53 1013.2
20260510174523 92 280 2.0 9.0 0.00 0.00 0.00 56 1013.4
20260510173022 91 352 3.0 8.0 0.00 0.00 0.00 59 1013.7
20260510171522 90 358 3.0 8.0 0.00 0.00 0.00 60 1013.9
20260510170020 92 318 4.0 10.0 0.00 0.00 0.00 56 1014.1
20260510164520 91 295 3.0 9.0 0.00 0.00 0.00 56 1014.3
20260510163015 91 335 2.0 7.0 0.00 0.00 0.00 61 1014.4
20260510161522 90 234 3.0 10.0 0.00 0.00 0.00 62 1014.7
20260510160011 89 230 3.0 11.0 0.00 0.00 0.00 62 1014.8
20260510154509 89 253 2.0 10.0 0.00 0.00 0.00 65 1014.7
20260510153007 88 207 3.0 9.0 0.00 0.00 0.00 66 1014.7
20260510151512 88 240 4.0 12.0 0.00 0.00 0.00 66 1014.7
20260510150124 87 252 3.0 8.0 0.00 0.00 0.00 67 1014.8
20260510144619 86 176 2.0 11.0 0.00 0.00 0.00 69 1014.7
20260510143057 85 216 5.0 11.0 0.00 0.00 0.00 70 1014.5
20260510141552 85 203 7.0 12.0 0.00 0.00 0.00 71 1014.4
20260510140047 83 203 5.0 11.0 0.00 0.00 0.00 74 1014.5
20260510134549 82 176 5.0 9.0 0.00 0.00 0.00 77 1014.4
20260510133047 81 206 3.0 6.0 0.00 0.00 0.00 80 1014.3
20260510131540 80 173 4.0 7.0 0.00 0.00 0.00 81 1014.3
20260510130034 78 195 3.0 6.0 0.00 0.00 0.00 84 1014.3
20260510124531 77 214 2.0 4.0 0.00 0.00 0.00 86 1014.3
20260510123030 77 208 2.0 5.0 0.00 0.00 0.00 87 1014.1
20260510121524 75 213 3.0 7.0 0.00 0.00 0.00 89 1013.9
20260510120022 74 212 2.0 4.0 0.00 0.00 0.00 91 1013.7
20260510114521 74 226 1.0 3.0 0.00 0.00 0.00 93 1013.4
20260510113018 73 250 1.0 2.0 0.00 0.00 0.00 93 1013.0
20260510111520 73 250 0.0 2.0 0.00 0.00 0.00 93 1012.8
20260510110027 72 189 0.0 2.0 0.00 0.00 0.00 93 1012.5
20260510104516 73 189 0.0 2.0 0.00 0.00 0.00 93 1012.3
20260510103015 73 189 1.0 3.0 0.00 0.00 0.00 92 1012.3
20260510101613 73 219 1.0 3.0 0.00 0.00 0.00 92 1012.1
20260510100012 73 219 1.0 3.0 0.00 0.00 0.00 92 1011.8
20260510094514 73 215 1.0 4.0 0.00 0.00 0.00 92 1011.8
20260510093012 73 180 2.0 4.0 0.00 0.00 0.00 92 1011.6
20260510091511 73 181 1.0 4.0 0.00 0.00 0.00 92 1011.6
20260510090011 73 193 1.0 4.0 0.00 0.00 0.00 93 1011.5
20260510084509 73 203 1.0 3.0 0.00 0.00 0.00 92 1011.3
20260510083015 73 162 2.0 4.0 0.00 0.00 0.00 92 1011.1
20260510081508 73 190 2.0 3.0 0.00 0.00 0.00 92 1011.1
20260510080006 73 220 0.0 4.0 0.00 0.00 0.00 92 1011.2
20260510074505 73 162 1.0 3.0 0.00 0.00 0.00 92 1011.3
20260510073006 74 192 1.0 4.0 0.00 0.00 0.00 92 1011.4
20260510071502 74 230 1.0 4.0 0.00 0.00 0.00 92 1011.6
20260510070002 74 163 2.0 4.0 0.00 0.00 0.00 92 1011.7
20260510064603 73 146 1.0 3.0 0.00 0.00 0.00 92 1011.8
20260510063101 74 146 1.0 4.0 0.00 0.00 0.00 91 1011.9
20260510061556 74 146 1.0 2.0 0.00 0.00 0.00 92 1012.3
20260510060054 74 146 0.0 2.0 0.00 0.00 0.00 91 1012.4
20260510054559 74 146 0.0 2.0 0.00 0.00 0.00 91 1012.6
20260510053050 74 146 0.0 2.0 0.00 0.00 0.00 90 1012.8
20260510051548 74 146 0.0 2.0 0.00 0.00 0.00 89 1012.9
20260510050046 74 146 0.0 2.0 0.00 0.00 0.00 88 1013.0
20260510044544 74 146 0.0 0.0 0.00 0.00 0.00 87 1013.1
20260510043042 75 146 0.0 2.0 0.00 0.00 0.00 86 1013.2
20260510041547 75 89 0.0 2.0 0.00 0.00 0.00 87 1013.2
20260510040038 75 89 0.0 2.0 0.00 0.00 0.00 86 1013.2
20260510034538 75 89 0.0 2.0 0.00 0.00 0.00 87 1013.2
20260510033048 74 89 0.0 2.0 0.00 0.00 0.00 85 1013.3
20260510031536 74 89 0.0 2.0 0.00 0.00 0.00 85 1013.1
20260510030035 75 89 0.0 1.0 0.00 0.00 0.00 84 1013.1
20260510024534 75 89 0.0 2.0 0.00 0.00 0.00 83 1012.9
20260510023034 75 90 0.0 3.0 0.00 0.00 0.00 83 1012.8
20260510021538 75 89 1.0 4.0 0.00 0.00 0.00 82 1012.7
20260510020033 75 124 1.0 3.0 0.00 0.00 0.00 82 1012.6
20260510014534 76 49 0.0 2.0 0.00 0.00 0.00 81 1012.5
20260510013038 76 48 0.0 2.0 0.00 0.00 0.00 81 1012.4
20260510011533 76 50 1.0 6.0 0.00 0.00 0.00 80 1012.2
20260510010030 76 46 2.0 6.0 0.00 0.00 0.00 80 1012.1
20260510004531 76 360 3.0 8.0 0.00 0.00 0.00 79 1011.9
20260510003033 77 36 2.0 7.0 0.00 0.00 0.00 80 1011.7
20260510001538 78 360 4.0 8.0 0.00 0.00 0.00 79 1011.5
20260510000028 80 360 5.0 10.0 0.00 0.00 0.00 77 1011.3
20260509234527 82 22 4.0 8.0 0.00 0.00 0.00 70 1011.0
20260509233026 83 355 5.0 11.0 0.00 0.00 0.00 68 1010.8
20260509231526 84 360 3.0 10.0 0.00 0.00 0.00 64 1010.7
20260509230027 85 360 5.0 8.0 0.00 0.00 0.00 63 1010.5
20260509224525 86 334 5.0 10.0 0.00 0.00 0.00 60 1010.3
20260509223024 87 351 4.0 8.0 0.00 0.00 0.00 57 1010.2
20260509221526 88 359 3.0 10.0 0.00 0.00 0.00 56 1009.9
20260509220023 89 360 3.0 10.0 0.00 0.00 0.00 55 1009.8
20260509214534 90 323 3.0 10.0 0.00 0.00 0.00 55 1009.7
20260509213023 91 283 4.0 10.0 0.00 0.00 0.00 54 1009.5
20260509211525 91 300 2.0 9.0 0.00 0.00 0.00 55 1009.4
20260509210020 90 211 4.0 9.0 0.00 0.00 0.00 60 1009.4
20260509204528 90 280 4.0 8.0 0.00 0.00 0.00 56 1009.5
20260509203018 90 312 4.0 9.0 0.00 0.00 0.00 56 1009.6
20260509201518 89 303 2.0 6.0 0.00 0.00 0.00 62 1009.5
20260509200015 86 318 1.0 4.0 0.00 0.00 0.00 66 1009.7
20260509194513 84 229 1.0 10.0 0.00 0.00 0.00 68 1009.7
20260509193013 83 84 1.0 4.0 0.00 0.00 0.00 71 1009.8
20260509191511 82 357 1.0 10.0 0.00 0.00 0.00 75 1010.2
20260509190009 89 248 7.0 13.0 0.00 0.00 0.00 58 1010.3
20260509184506 90 327 2.0 9.0 0.00 0.00 0.00 54 1010.1
20260509183005 92 314 6.0 13.0 0.00 0.00 0.00 52 1010.2